This demonstration page uses our WeatherBlox Daily Observations layout. Learn more.

Hourly Observations for January 20, 2018

Temp ( °F °C ) Dew Point ( °F °C ) Humidity (%) Winds ( mph kmh ) Pressure ( in mb ) Visibility ( mi km ) Precip ( " mm )
12:15 am 00:15 Clear 33 0.6 31 -0.5 92 92 N 7 11 29.83 1010 10 16.0934 0 0
12:35 am 00:35 Clear 33 0.7 31 -0.6 91 91 N 9 15 29.83 1010 10 16.0934 0 0
12:55 am 00:55 Clear 32 -0.1 29 -1.8 88 88 NNE 7 11 29.85 1011 10 16.0934 0 0
1:15 am 01:15 Clear 31 -0.5 30 -1.1 96 96 N 7 11 29.85 1011 10 16.0934 0 0
1:35 am 01:35 Clear 31 -0.7 30 -1.3 96 96 N 8 13 29.85 1011 10 16.0934 0 0
1:55 am 01:55 Clear 32 -0.1 30 -0.9 94 94 N 7 11 29.85 1011 10 16.0934 0 0
2:15 am 02:15 Clear 31 -0.5 30 -1.2 95 95 N 8 13 29.85 1011 10 16.0934 0 0
2:35 am 02:35 Clear 30 -0.9 29 -1.5 96 96 NNE 7 11 29.85 1011 10 16.0934 0 0
2:55 am 02:55 Clear 29 -1.5 28 -2 96 96 NNE 7 11 29.85 1011 10 16.0934 0 0
3:15 am 03:15 Clear 29 -1.5 29 -1.7 99 99 NNE 7 11 29.88 1012 10 16.0934 0 0
3:35 am 03:35 Clear 29 -1.9 28 -2.2 98 98 NNE 7 11 29.85 1011 10 16.0934 0 0
3:55 am 03:55 Clear 28 -2.5 27 -2.8 98 98 NNE 7 11 29.85 1011 10 16.0934 0 0
4:15 am 04:15 Clear 27 -2.6 27 -2.7 99 99 NNE 7 11 29.85 1011 10 16.0934 0 0
4:35 am 04:35 Clear 29 -1.9 28 -2.1 99 99 NNE 6 9 29.85 1011 10 16.0934 0 0
4:55 am 04:55 Clear 28 -2.3 27 -2.6 98 98 NNE 7 11 29.85 1011 10 16.0934 0 0
5:15 am 05:15 Clear 28 -2.3 27 -2.6 98 98 N 6 9 29.85 1011 10 16.0934 0 0
5:35 am 05:35 Clear 27 -2.7 27 -3 98 98 NNE 8 13 29.88 1012 10 16.0934 0 0
5:55 am 05:55 Clear 27 -3 26 -3.3 98 98 NNE 8 13 29.88 1012 10 16.0934 0 0
6:15 am 06:15 Clear 27 -2.6 27 -2.8 99 99 NNE 7 11 29.91 1013 10 16.0934 0 0
6:35 am 06:35 Clear 28 -2.5 27 -2.6 99 99 NE 8 13 29.91 1013 10 16.0934 0 0
6:55 am 06:55 Clear 27 -3 26 -3.3 98 98 NE 10 17 29.91 1013 10 16.0934 0 0
7:15 am 07:15 Clear 27 -2.7 27 -2.9 99 99 NE 9 15 29.91 1013 10 16.0934 0 0
7:35 am 07:35 Clear 28 -2.5 27 -2.8 98 98 NNE 9 15 29.91 1013 10 16.0934 0 0
7:55 am 07:55 Clear 28 -2.4 27 -2.6 99 99 N 8 13 29.91 1013 10 16.0934 0 0
8:15 am 08:15 Sunny 28 -2.4 27 -2.8 97 97 N 8 13 29.91 1013 10 16.0934 0 0
8:35 am 08:35 Sunny 28 -2 28 -2.3 98 98 N 7 11 29.88 1012 10 16.0934 0 0
8:55 am 08:55 Sunny 30 -1.1 29 -1.4 98 98 NNE 8 13 29.88 1012 10 16.0934 0 0
9:15 am 09:15 Sunny 32 0 31 -0.6 96 96 NNE 8 13 29.88 1012 10 16.0934 0 0
9:35 am 09:35 Sunny 33 0.4 32 -0.1 96 96 NE 9 15 29.88 1012 10 16.0934 0 0
9:55 am 09:55 Sunny 35 1.5 32 0.2 91 91 NE 15 24 29.85 1011 10 16.0934 0 0
10:15 am 10:15 Sunny 36 2 33 0.4 89 89 NE 16 26 29.85 1011 10 16.0934 0 0
10:35 am 10:35 Sunny 37 2.5 33 0.5 87 87 NE 15 24 29.85 1011 10 16.0934 0 0
10:55 am 10:55 Sunny 38 3.2 33 0.7 84 84 NE 14 22 29.85 1011 10 16.0934 0 0
11:15 am 11:15 Sunny 39 3.7 33 0.7 81 81 NNE 15 24 29.85 1011 10 16.0934 0 0
11:35 am 11:35 Sunny 40 4.3 34 0.9 79 79 NE 12 19 29.83 1010 10 16.0934 0 0
11:55 am 11:55 Sunny 40 4.5 33 0.8 77 77 NE 14 22 29.83 1010 10 16.0934 0 0
12:15 pm 12:15 Sunny 41 4.9 34 1.1 77 77 NE 15 24 29.83 1010 10 16.0934 0 0
12:35 pm 12:35 Sunny 41 5.1 34 1.2 76 76 NE 15 24 29.83 1010 10 16.0934 0 0
12:55 pm 12:55 Sunny 43 5.9 35 1.4 73 73 NE 15 24 29.83 1010 10 16.0934 0 0
1:15 pm 13:15 Sunny 43 5.9 34 1.3 73 73 NE 14 22 29.83 1010 10 16.0934 0 0
1:35 pm 13:35 Sunny 44 6.5 35 1.7 72 72 NE 10 17 29.83 1010 10 16.0934 0 0
1:55 pm 13:55 Sunny 44 6.7 35 1.7 71 71 NE 16 26 29.8 1009 10 16.0934 0 0
2:15 pm 14:15 Sunny 44 6.9 35 1.7 70 70 NE 13 20 29.77 1008 10 16.0934 0 0
2:35 pm 14:35 Sunny 45 7.1 35 1.6 68 68 NE 15 24 29.77 1008 10 16.0934 0 0
2:55 pm 14:55 Sunny 45 7.1 35 1.5 68 68 NE 15 24 29.77 1008 10 16.0934 0 0
3:15 pm 15:15 Sunny 45 7.1 35 1.6 68 68 ENE 13 20 29.77 1008 10 16.0934 0 0
3:35 pm 15:35 Sunny 45 7.2 35 1.8 69 69 ENE 13 20 29.8 1009 10 16.0934 0 0
3:55 pm 15:55 Sunny 45 7 35 1.9 70 70 ENE 10 17 29.83 1010 10 16.0934 0 0
4:15 pm 16:15 Sunny 44 6.9 36 2 71 71 ENE 12 19 29.83 1010 10 16.0934 0 0
4:35 pm 16:35 Sunny 44 6.6 36 2 73 73 ENE 10 17 29.83 1010 10 16.0934 0 0
4:55 pm 16:55 Sunny 43 6 35 1.8 75 75 NE 10 17 29.83 1010 10 16.0934 0 0
5:15 pm 17:15 Sunny 40 4.6 34 1.3 79 79 NE 8 13 29.83 1010 10 16.0934 0 0
5:35 pm 17:35 Sunny 37 3 33 0.5 84 84 NE 7 11 29.85 1011 10 16.0934 0 0
5:55 pm 17:55 Clear 35 1.9 32 0.1 88 88 NNE 6 9 29.85 1011 10 16.0934 0 0
6:15 pm 18:15 Clear 35 1.5 32 0 90 90 NNE 5 7 29.85 1011 10 16.0934 0 0
6:35 pm 18:35 Clear 35 1.7 33 0.3 91 91 NNE 7 11 29.85 1011 10 16.0934 0 0
6:55 pm 18:55 Clear 32 0 30 -1 93 93 NE 8 13 29.88 1012 10 16.0934 0 0
7:15 pm 19:15 Clear 33 0.3 32 -0.1 97 97 NNE 7 11 29.91 1013 10 16.0934 0 0
7:35 pm 19:35 Clear 32 0.1 31 -0.6 95 95 NE 7 11 29.91 1013 10 16.0934 0 0
7:55 pm 19:55 Clear 31 -0.7 30 -1.3 96 96 NNE 8 13 29.91 1013 10 16.0934 0 0
8:15 pm 20:15 Clear 31 -0.5 31 -0.6 99 99 NNE 7 11 29.88 1012 10 16.0934 0 0
8:35 pm 20:35 Clear 31 -0.5 31 -0.7 99 99 NNE 6 9 29.88 1012 10 16.0934 0 0
8:55 pm 20:55 Clear 32 0 32 -0.2 99 99 N 8 13 29.91 1013 10 16.0934 0 0
9:15 pm 21:15 Clear 32 0 31 -0.3 98 98 N 9 15 29.88 1012 10 16.0934 0 0
9:35 pm 21:35 Partly Cloudy 32 0.1 31 -0.3 97 97 NNE 10 17 29.88 1012 10 16.0934 0 0
9:55 pm 21:55 Cloudy 33 0.3 32 -0.1 97 97 NNE 10 17 29.88 1012 10 16.0934 0 0
10:15 pm 22:15 Cloudy 33 0.7 32 0 95 95 NNE 13 20 29.88 1012 10 16.0934 0 0
10:35 pm 22:35 Cloudy 33 0.5 32 -0.1 96 96 NNE 10 17 29.88 1012 10 16.0934 0 0
10:55 pm 22:55 Cloudy 33 0.5 32 -0.2 95 95 NNE 12 19 29.88 1012 10 16.0934 0 0
11:15 pm 23:15 Cloudy 33 0.7 32 0 95 95 NNE 12 19 29.88 1012 10 16.0934 0 0
11:35 pm 23:35 Cloudy 33 0.8 32 0 94 94 NNE 12 19 29.85 1011 10 16.0934 0 0
11:55 pm 23:55 Cloudy 33 0.8 32 0 94 94 NNE 12 19 29.85 1011 10 16.0934 0 0

Powered by AerisWeather